sat.trackr.live / text

‹ back to catalog

STARLINK-35767

NORAD 67058 · 2025-294AE

PAYLOAD ACTIVE UNKNOWN

§ Identity

Operator
Country
US
Launch date
2025-12-11
Launch site
AFETR
Launch vehicle
Mass (kg)
RCS (m²)

Purposes: comms

External: N2YO · Heavens-Above · Gunter

§ Orbital elements

Epoch: 2026-09-20T09:28:44.395392Z

Period
94.27 min
Inclination
43.0011°
Eccentricity
0.0003261
Mean motion
15.27605985 rev/d
Perigee alt
480.7 km
Apogee alt
485.2 km
Semi-major
6,861.1 km
B*
3.9705e-4
RAAN
18.7539°
Arg perigee
287.0971°
Mean anomaly
72.9524°
Rev number
4,457

§ Raw data

STARLINK-357671 67058U 25294AE  26263.39495828  .00010689  00000+0  39705-3 0  99952 67058  43.0011  18.7539 0003261 287.0971  72.9524 15.27605985 44573

JSON: /api/v1/satellites/67058 · /tle

For live sub-satellite position, see the globe view (requires WebGL).

§ Visibility from observer

Set your observer location to see the next 7 days of passes ≥ 10°. The values pass through the URL so the page stays shareable.

No JS? Fill the form by hand. The geolocation button needs JavaScript.